Preview of NWS' New Version of Forecast
This preview is not operational and should not be used for support decisions.

Regional Weather Roundup (RWR)

Issued by National Weather Service (NWS)

                            
000
ASUS42 KTBW 240716
RWRFL 
FLORIDA REGIONAL WEATHER ROUNDUP
NATIONAL WEATHER SERVICE TAMPA BAY RUSKIN FL
300 AM EDT FRI MAY 24 2019

NOTE: "FAIR" INDICATES FEW OR NO CLOUDS BELOW 12,000 FEET WITH NO
SIGNIFICANT WEATHER AND/OR OBSTRUCTIONS TO VISIBILITY.

FLZ001>010-012>015-112-114-115-240800-
PANHANDLE FLORIDA
  
CITY           SKY/WX    TMP DP  RH WIND       PRES   REMARKS
PENSACOLA      FAIR      73  71  93 CALM      30.10F                  
PENSACOLA NAS  FAIR      69  69 100 CALM      30.10F                  
MILTON NAS     FAIR      67  67 100 CALM      30.11F                  
CRESTVIEW      FAIR      68  65  90 MISG      30.12F                  
DUKE FIELD     FAIR      67  67 100 CALM      30.11F                  
VALPARAISO     FAIR      71  68  90 CALM      30.10F                  
PANAMA CITY      N/A     71  68  90 N3        30.11F                  
TYNDALL AFB    FAIR      75  71  88 E5        30.11F                  
APALACHICOLA   FAIR      80  68  66 SE9       30.11F                  

STATION/POSITION SKY/WX   TEMP    WIND        PRES    WAVE   SWELL
                          AIR SEA DIR/SP/G            HT/PER HT/PER
                          (F)     (DEG/KT/KT) (MB)    (FT/S) (FT/S)
30.1N   87.6W                                   N/A     4/ 6
29.2N   88.2W                     140/ 12/ 14 1019.1F   5/ 6   3/ 6
PANAMA CITY BEAC           77 83   60/  4/  5 1020.1F
TOWER C          NOT AVBL

$$
FLZ011-016>038-118-127-128-134-139-239-240800-
NORTH FLORIDA
  
CITY           SKY/WX    TMP DP  RH WIND       PRES   REMARKS
MARIANNA       FAIR      77  69  76 SE3       30.12F                  
TALLAHASSEE    FAIR      73  65  75 E7        30.13F                  
PERRY          FAIR      71  66  85 SE6       30.15F                  
LIVE OAK       CLEAR     66  66 100 CALM      30.14F                  
CROSS CITY     FAIR      65  63  93 CALM      30.14F                  
LAKE CITY      FAIR      63  63 100 CALM      30.14F FOG              
GAINESVILLE    FAIR      67  63  87 CALM      30.16F                  
WILLISTON      FAIR      65  64  94 NE3       30.14F                  
PALATKA        FAIR     N/A N/A N/A CALM      30.14F FOG              
MAYPORT NAS    FAIR      75  66  73 SE6       30.14F                  
JACKSONVILLE   FAIR      66  64  93 NE3       30.14F                  
JAX NAS        FAIR      77  64  64 SE8       30.14F                  
JAX CECIL      FAIR      63  61  94 CALM      30.14F FOG              
FERNANDINA BEA FAIR      74  66  76 SE5       30.15F                  
ST AUGUSTINE   FAIR      74  66  76 SE8       30.15F                  
PALM COAST     FAIR      67  64  89 CALM      30.14F                  

STATION/POSITION SKY/WX   TEMP    WIND        PRES    WAVE   SWELL
                          AIR SEA DIR/SP/G            HT/PER HT/PER
                          (F)     (DEG/KT/KT) (MB)    (FT/S) (FT/S)
SHELL POINT      NOT AVBL
KEATON BEACH               70      80/  6/  7 1020.8F
CEDAR KEY                  76     120/ 15/ 17 1020.2F
FERNANDINA                 77 81  120/  2/  3 1021.6F
30.7N   81.3W                 80                N/A     3/ 7
MAYPORT                    76 80  130/  3/  7 1021.0F
31.4N   80.9W              77 78  180/ 12/ 12 1020.6F   2/ 7   2/ 7
ST AUGUSTINE               77 80  130/ 11/ 12 1020.7F

$$
FLZ040-043>046-052-053-057-058-063-144-240800-
INTERIOR CENTRAL FLORIDA
  
CITY           SKY/WX    TMP DP  RH WIND       PRES   REMARKS
OCALA          FAIR      71  66  84 E3        30.15                   
LEESBURG       FAIR      70  65  84 E5        30.15F                  
SANFORD        FAIR      69  65  86 E5        30.13F                  
ORLANDO EXEC   FAIR      71  65  81 NE5       30.13F                  
ORLANDO INTL   FAIR      70  64  81 E3        30.13F                  
KISSIMMEE      FAIR      72  65  78 NE5       30.14F                  
WINTER HAVEN   FAIR      72  66  81 E6        30.13F                  
LAKELAND       FAIR      70  63  78 CALM      30.13F                  
BARTOW         CLOUDY    70  66  88 NE5       30.12F                  
SEBRING        FAIR      66  63  88 NE5       30.12F                  
OKEECHOBEE     FAIR      64  61  88 CALM      30.11F                  

$$
FLZ041-047-054-059-064-141-147-240800-
EAST CENTRAL FLORIDA
  
CITY           SKY/WX    TMP DP  RH WIND       PRES   REMARKS
DAYTONA BEACH  FAIR      74  66  76 E5        30.14F                  
DELAND         FAIR      66  64  94 CALM      30.14F                  
CAPE CANAVERAL FAIR      73  59  60 E6        30.11F                  
PATRICK AFB    FAIR      77  66  69 E13       30.11F                  
MELBOURNE      FAIR      77  64  64 E12       30.11F                  
VERO BEACH     FAIR      75  62  64 E9        30.11F                  
FT PIERCE      CLOUDY    76  63  64 E14       30.10F                  

STATION/POSITION SKY/WX   TEMP    WIND        PRES    WAVE   SWELL
                          AIR SEA DIR/SP/G            HT/PER HT/PER
                          (F)     (DEG/KT/KT) (MB)    (FT/S) (FT/S)
28.5N   80.2W              77     100/ 12/ 16 1020.4
28.9N   78.5W              76 79   90/ 12/ 16   N/A     5/ 8   3/ 8
TRIDENT PIER               75 81   90/  7/ 10 1021.3F
28.4N   80.5W                 80                N/A     3/ 6
27.5N   80.2W                 78                N/A     5/ 7

$$
FLZ050-056-061-142-242-148-248-149-249-151-251-155-255-
160-260-240800-
WEST CENTRAL FLORIDA
  
CITY           SKY/WX    TMP DP  RH WIND       PRES   REMARKS
CRYSTAL RIVER  FAIR      66  64  94 CALM      30.14S                  
INVERNESS      FAIR      68  68 100 CALM      30.14S                  
BROOKSVILLE    FAIR      67  64  90 E5        30.13F                  
CLEARWATER AIR FAIR      73  63  68 E8G16     30.12F                  
ST PETE CLEARW FAIR      74  65  73 E12       30.11F                  
TAMPA INTL     FAIR      75  64  68 VRB3      30.12F                  
TAMPA EXEC     FAIR      64  63  94 CALM      30.13F                  
PLANT CITY     FAIR      70  66  88 CALM      30.15F                  
MACDILL AFB    FAIR      72  65  78 SE7       30.11F                  
PETER O KNIGHT CLOUDY    73  68  83 E6        30.12F                  
ST PETERSBURG    N/A    N/A N/A N/A MISG      30.11F                  
SARASOTA       FAIR      71  65  81 E7        30.09F                  
VENICE         FAIR      72  66  83 E8        30.11F                  

STATION/POSITION SKY/WX   TEMP    WIND        PRES    WAVE   SWELL
                          AIR SEA DIR/SP/G            HT/PER HT/PER
                          (F)     (DEG/KT/KT) (MB)    (FT/S) (FT/S)
27.3N   84.2W                 80                N/A     4/ 5
CLEARWATER BEACH           76 85  100/  8/ 12 1019.8F
MIDDLE TAMPA BAY           74     110/ 10/ 14 1019.9F
VENICE                     72 83   60/  6/  9 1019.3F

$$
FLZ066-069-070-075>078-162-262-165-265-240800-
SOUTHWEST FLORIDA AND KEYS
  
CITY           SKY/WX    TMP DP  RH WIND       PRES   REMARKS
PUNTA GORDA    FAIR      67  63  87 E6        30.11F                  
FT MYERS       FAIR      70  65  84 NE6       30.08F                  
SOUTHWEST INTL FAIR      71  64  78 NE6       30.09F                  
NAPLES         FAIR      71  65  81 NE9       30.08F                  
MARCO ISLAND   FAIR      70  66  87 NE7       30.08F                  
IMMOKALEE      CLOUDY    66  63  88 CALM      30.07F                  
MARATHON       FAIR      82  65  56 E15       30.02F                  
KEY WEST NAS   FAIR      81  70  69 NE13      30.03F                  
KEY WEST INTL  FAIR      79  69  71 E14G21    30.03F                  

STATION/POSITION SKY/WX   TEMP    WIND        PRES    WAVE   SWELL
                          AIR SEA DIR/SP/G            HT/PER HT/PER
                          (F)     (DEG/KT/KT) (MB)    (FT/S) (FT/S)
NAPLES                     74 83              1018.5F
DRY TORTUGAS               80      90/ 21/ 25 1016.8F
SAND KEY                   80                 1016.5F
SOMBRERO KEY               80                 1016.0F

$$
FLZ067-068-071>074-168-172>174-240800-
SOUTHEAST FLORIDA 
  
CITY           SKY/WX    TMP DP  RH WIND       PRES   REMARKS
W PALM BEACH   PTCLDY    76  62  62 E17       30.09F                  
FT LAUDER-EXEC FAIR      77  62  59 E10       30.07F                  
FT LAUDERDALE  MOCLDY    77  65  66 E13       30.06F                  
POMPANO BEACH  FAIR      78  63  59 E12G21    30.07F                  
PEMBROKE PINES FAIR      77  62  59 E10       30.08F                  
OPA LOCKA      FAIR      77  63  61 E12       30.07F                  
MIAMI          FAIR      78  63  59 E9        30.06F                  
WEST KENDALL   FAIR      76  63  64 E10       30.06F                  
HOMESTEAD      FAIR      77  65  66 NE12      30.04F                  

STATION/POSITION SKY/WX   TEMP    WIND        PRES    WAVE   SWELL
                          AIR SEA DIR/SP/G            HT/PER HT/PER
                          (F)     (DEG/KT/KT) (MB)    (FT/S) (FT/S)
PORT EVERGLADES            78      70/ 12/ 17 1018.3
VIRGINIA KEY               79 83   50/ 12/ 17 1017.4F
LAKE WORTH                 77 81              1019.9F
SETTLEMENT POINT           77      90/ 14/ 17 1019.0F

$$